Baltimore, MD

8:45 PM EDT on July 20, 2017 (GMT -0400)
Baltimore-Washington International

Weather History for KBWI - April, 2013

Change the Weather History Date:

Friday, April 19, 2013

  Actual Average Record
Temperature  
Mean Temperature 65 °F 55 °F  
Max Temperature 78 °F 66 °F 93 °F (1896)
Min Temperature 52 °F 44 °F 24 °F (1875)
Degree Days  
Heating Degree Days 0 11  
Month to date heating degree days 180 255  
Since 1 July heating degree days 4221 4516  
Cooling Degree Days 0 1  
Month to date cooling degree days 26 1  
Year to date cooling degree days 26 2  
Growing Degree Days 16 (Base 50)    
Moisture  
Dew Point 60 °F    
Average Humidity 79    
Maximum Humidity 100    
Minimum Humidity 58    
Precipitation  
Precipitation 0.79 in 0.10 in 1.46 in (1943)
Month to date precipitation 1.65 2.05  
Year to date precipitation 9.88 11.90  
Snow  
Snow 0.00 in 0.00 in T in (1983)
Month to date snowfall T 0.0  
Since 1 July snowfall 8.0 20.1  
Snow Depth 0.00 in    
Sea Level Pressure  
Sea Level Pressure 29.80 in    
Wind  
Wind Speed 8 mph (SSE)    
Max Wind Speed 24 mph    
Max Gust Speed 33 mph    
Visibility 7 miles    
Events Rain , Thunderstorm    
T = Trace of Precipitation, MM = Missing Value Source: NWS Daily Summary

Daily Weather History Graph

Daily Weather History Graph

Search for Another Location

Airport or City:

Trip Planner

Search our weather history database for the weather conditions in past years. The results will help you decide how hot, cold, wet, or windy it might be!

Date:

Astronomy

Apr. 19, 2013 Rise Set
Actual Time 6:23 AM EDT 7:48 PM EDT
Civil Twilight 5:55 AM EDT 8:16 PM EDT
Nautical Twilight 5:22 AM EDT 8:49 PM EDT
Astronomical Twilight 4:47 AM EDT 9:25 PM EDT
Moon 1:33 PM EDT (4/19) 2:35 AM EDT (4/19)
Length of Visible Light 14h 20m
Length of Day
13h 24m
First Quarter, 61% of the Moon is Illuminated
Apr 19
First Quarter
Apr 25
Full
May 2
Last Quarter
May 9
New
May 18
First Quarter

Hourly Weather History & Observations

Time (EDT) Temp. Dew Point Humidity Pressure Visibility Wind Dir Wind Speed Gust Speed Precip Events Conditions
12:54 AM 62.1 °F 57.0 °F 84% 30.01 in 10.0 mi South 4.6 mph - N/A   Clear
1:54 AM 61.0 °F 57.0 °F 87% 29.98 in 10.0 mi SE 3.5 mph - N/A   Partly Cloudy
2:54 AM 59.0 °F 57.0 °F 93% 29.96 in 10.0 mi SE 3.5 mph - N/A   Scattered Clouds
3:54 AM 57.9 °F 55.9 °F 93% 29.93 in 10.0 mi ESE 3.5 mph - N/A   Mostly Cloudy
4:54 AM 57.9 °F 55.9 °F 93% 29.92 in 10.0 mi Calm Calm - N/A   Mostly Cloudy
5:32 AM 57.2 °F 57.2 °F 100% 29.92 in 10.0 mi Calm Calm - N/A   Mostly Cloudy
5:44 AM 59.0 °F 57.2 °F 94% 29.92 in 10.0 mi SSE 3.5 mph - N/A   Mostly Cloudy
5:54 AM 59.0 °F 57.0 °F 93% 29.92 in 10.0 mi SE 3.5 mph - N/A   Overcast
6:54 AM 59.0 °F 57.9 °F 96% 29.91 in 7.0 mi ESE 4.6 mph - 0.00 in Rain Light Rain
7:08 AM 60.8 °F 59.0 °F 94% 29.91 in 2.5 mi SE 4.6 mph - 0.01 in Rain Light Rain
7:18 AM 60.8 °F 59.0 °F 94% 29.91 in 2.5 mi SE 4.6 mph - 0.01 in Rain Light Rain
7:29 AM 60.8 °F 59.0 °F 94% 29.91 in 1.8 mi SE 4.6 mph - 0.01 in Rain Light Rain
7:33 AM 60.8 °F 59.0 °F 94% 29.91 in 0.8 mi SE 4.6 mph - 0.02 in Rain Light Rain
7:46 AM 60.8 °F 60.8 °F 100% 29.91 in 2.0 mi SE 4.6 mph - 0.03 in Rain Light Rain
7:54 AM 61.0 °F 60.1 °F 97% 29.90 in 2.5 mi SE 4.6 mph - 0.03 in Rain Light Rain
7:59 AM 60.8 °F 60.8 °F 100% 29.90 in 3.0 mi SE 4.6 mph - 0.00 in Rain Light Rain
8:30 AM 62.6 °F 60.8 °F 94% 29.89 in 6.0 mi SSE 6.9 mph - 0.00 in   Mostly Cloudy
8:54 AM 64.0 °F 61.0 °F 90% 29.89 in 8.0 mi SSE 5.8 mph - 0.00 in   Mostly Cloudy
9:54 AM 66.9 °F 62.1 °F 84% 29.87 in 9.0 mi South 9.2 mph - N/A   Overcast
10:54 AM 68.0 °F 63.0 °F 84% 29.85 in 10.0 mi SSE 10.4 mph - 0.00 in   Overcast
11:54 AM 69.1 °F 63.0 °F 81% 29.81 in 10.0 mi SSE 5.8 mph - N/A   Overcast
12:32 PM 71.6 °F 64.4 °F 78% 29.78 in 10.0 mi SE 8.1 mph - N/A   Overcast
12:54 PM 73.9 °F 62.1 °F 66% 29.78 in 10.0 mi SSW 13.8 mph 27.6 mph N/A   Overcast
1:54 PM 73.9 °F 62.1 °F 66% 29.73 in 10.0 mi Variable 6.9 mph - N/A   Overcast
2:54 PM 77.0 °F 62.1 °F 60% 29.69 in 10.0 mi South 12.7 mph 20.7 mph N/A   Overcast
3:54 PM 78.1 °F 62.1 °F 58% 29.65 in 10.0 mi South 10.4 mph 26.5 mph N/A   Overcast
4:54 PM 77.0 °F 62.1 °F 60% 29.64 in 10.0 mi South 6.9 mph 17.3 mph N/A   Overcast
5:54 PM 73.9 °F 62.1 °F 66% 29.62 in 10.0 mi SE 9.2 mph - N/A   Overcast
6:54 PM 72.0 °F 61.0 °F 68% 29.60 in 10.0 mi SE 8.1 mph - N/A   Overcast
7:11 PM 69.8 °F 62.6 °F 78% 29.59 in 10.0 mi SSE 5.8 mph - 0.01 in Rain , Thunderstorm Light Thunderstorms and Rain
7:47 PM 66.2 °F 64.4 °F 94% 29.59 in 1.5 mi SE 6.9 mph 17.3 mph 0.15 in Rain , Thunderstorm Heavy Thunderstorms and Rain
7:54 PM 68.0 °F 64.0 °F 87% 29.63 in 2.0 mi WSW 18.4 mph 24.2 mph 0.21 in Rain , Thunderstorm Light Thunderstorms and Rain
8:06 PM 68.0 °F 64.4 °F 88% 29.65 in 3.0 mi SW 21.9 mph 28.8 mph 0.04 in Rain , Thunderstorm Light Thunderstorms and Rain
8:22 PM 66.2 °F 64.4 °F 94% 29.66 in 7.0 mi SW 13.8 mph 21.9 mph 0.07 in Rain Light Rain
8:54 PM 66.0 °F 64.0 °F 93% 29.68 in 6.0 mi SW 6.9 mph - 0.10 in Rain Light Rain
9:09 PM 66.2 °F 64.4 °F 94% 29.69 in 5.0 mi SSW 5.8 mph - 0.03 in Rain Light Rain
9:21 PM 66.2 °F 64.4 °F 94% 29.69 in 4.0 mi SW 6.9 mph - 0.05 in Rain Rain
9:27 PM 64.4 °F 62.6 °F 94% 29.70 in 4.0 mi NW 15.0 mph 19.6 mph 0.07 in Rain Light Rain
9:39 PM 60.8 °F 59.0 °F 94% 29.72 in 2.5 mi WNW 8.1 mph - 0.14 in Rain Heavy Rain
9:54 PM 57.0 °F 51.1 °F 81% 29.75 in 7.0 mi WNW 20.7 mph 33.4 mph 0.17 in Rain Light Rain
10:16 PM 55.4 °F 51.8 °F 88% 29.74 in 7.0 mi WNW 12.7 mph 19.6 mph 0.03 in Rain Light Rain
10:54 PM 54.0 °F 51.1 °F 90% 29.76 in 10.0 mi South 4.6 mph - 0.08 in Rain Light Rain
11:54 PM 53.1 °F 51.1 °F 93% 29.77 in 5.0 mi Variable 3.5 mph - 0.15 in Rain Rain